Simultaneous Nadir Overpasses (SNOs) Predictions

Prediction of SNOs between METOP-B and NOAA-19 Satellite Orbit:

Table of predicted SNOs for the next 14.0 days since TLE Epoch: 3/22/2013
Index Date (METOP-B) Time (METOP-B) Lat,Lon (METOP-B) SZA (METOP-B ) Date (NOAA-19) Time (NOAA-19) Lat,Lon (NOAA-19) SZA (NOAA-19 ) Distance(km) Time Diff (sec)
1 03/25/2013 20:14:40 -73.27, 49.67 108.77 03/25/2013 20:13:27 -73.27, 49.58 108.75 2.83 73
2 03/25/2013 21:05:20 73.23,-143.08 71.18 03/25/2013 21:04:25 73.21,-143.03 71.17 2.75 55
3 03/25/2013 21:56:03 -73.20, 24.18 108.86 03/25/2013 21:55:30 -73.19, 24.25 108.87 2.91 33
4 03/25/2013 22:46:42 73.21,-168.47 71.14 03/25/2013 22:46:29 73.17,-168.47 71.11 3.73 13
5 03/25/2013 23:37:25 -73.18, -1.21 108.91 03/25/2013 23:37:34 -73.15, -1.19 108.94 3.07 9
6 03/26/2013 00:28:05 73.14, 166.04 71.04 03/26/2013 00:28:33 73.14, 166.09 71.04 1.71 28
7 03/26/2013 01:18:48 -73.11, -26.70 109.00 03/26/2013 01:19:38 -73.12, -26.63 109.00 2.59 50
8 03/26/2013 02:09:27 73.12, 140.65 71.00 03/26/2013 02:10:37 73.11, 140.65 70.97 1.22 70
9 03/26/2013 03:00:23 -72.43, -53.45 109.63 03/26/2013 03:01:29 -72.43, -50.69 109.77 92.81 66
10 04/04/2013 20:07:38 -73.35, 51.61 112.60 04/04/2013 20:06:24 -73.37, 51.17 112.54 14.12 74
11 04/04/2013 20:58:19 73.24,-141.30 67.29 04/04/2013 20:57:23 73.26,-141.34 67.33 3.16 56
12 04/04/2013 21:49:02 -73.23, 26.00 112.73 04/04/2013 21:48:26 -73.24, 25.96 112.71 1.83 36
13 04/04/2013 22:39:41 73.22,-166.69 67.25 04/04/2013 22:39:27 73.23,-166.78 67.27 3.34 14
14 04/04/2013 23:30:24 -73.21, 0.62 112.78 04/04/2013 23:30:30 -73.21, 0.51 112.78 3.28 6
15 04/05/2013 00:21:04 73.14, 167.82 67.15 04/05/2013 00:21:30 73.15, 167.89 67.15 2.40 26
16 04/05/2013 01:11:47 -73.14, -24.88 112.87 04/05/2013 01:12:33 -73.12, -24.82 112.89 2.45 46
17 04/05/2013 02:02:26 73.12, 142.43 67.11 04/05/2013 02:03:34 73.11, 142.45 67.09 1.26 68
18 04/05/2013 02:53:20 -72.56, -51.43 113.42 04/05/2013 02:54:28 -72.64, -49.29 113.44 71.71 68




NCC Satellite Simultaneous Nadir Overpasses (
